Miscellaneous Local Product
Issued by NWS North Platte, NE

Home | Current Version | Previous Version | Graphics & Text | Print | Product List | Glossary On
Versions: 1 2 3 4 5 6 7 8 9 10 11 12 13 14 15 16 17 18 19 20 21 22 23 24 25 26 27 28 29 30 31 32 33 34 35 36 37 38 39 40 41 42 43 44 45 46 47 48 49 50
710
AXUS43 KLBF 230810
MISLBF


WESTERN AND NORTH CENTRAL NEBRASKA HOURLY WEATHER ROUNDUP
NATIONAL WEATHER SERVICE NORTH PLATTE NE
300 AM CDT MON APR 23 2018

NOTE: "FAIR" INDICATES FEW OR NO CLOUDS BELOW 12,000 FEET WITH NO
SIGNIFICANT WEATHER AND/OR OBSTRUCTIONS TO VISIBILITY.

NOTE: STATIONS NOT REPORTING VARIABLES SUCH AS SKY/WEATHER OR
PRESSURE ARE PROVIDED BY RAWS AND APRS NETWORKS AND ARE NOT UNDER
NATIONAL WEATHER SERVICE QUALITY CONTROL.

...OBSERVATIONS IN AND NEAR THE EASTERN PANHANDLE OF NEBRASKA...

CITY           SKY/WX    TMP DP  RH WIND       PRES   REMARKS
PINE RIDGE     CLEAR     47  37  68 S16       30.11F
GORDON         FAIR      41  36  80 CALM      30.13F
CHADRON        CLEAR     47  37  68 S16       30.09F
ALLIANCE       CLEAR     35  34  96 S7        30.13F WCI  29
SIDNEY         CLEAR     35  32  88 S8        30.14F WCI  29
CRESCENT LAKE    N/A     39  36  89 SE6         N/A  WCI  35
$$

...OBSERVATIONS IN NORTHERN NEBRASKA AND FAR SOUTHERN SOUTH DAKOTA...

CITY           SKY/WX    TMP DP  RH WIND       PRES   REMARKS
WINNER         FAIR      45  35  68 S7        30.16S
VALENTINE      CLEAR     40  36  86 SW7       30.15F
AINSWORTH      CLEAR     39  37  94 S6        30.16F WCI  34
O`NEILL        CLEAR     47  37  66 S5        30.17F
THEDFORD       CLEAR     40  37  89 SE6       30.17F
BROKEN BOW     CLEAR     35  32  88 CALM      30.17F
ORD            CLEAR     36  32  85 CALM      30.16F
ALBION         CLOUDY    51  38  60 CALM      30.18S
VALENTINE NWR    N/A     38  36  91 S3          N/A
HALSEY           N/A     43  37  78 CALM        N/A
BUTTE            N/A     46  35  65 SE7         N/A
CHAMBERS         N/A     39  34  82 CALM        N/A
EWING            N/A     42  34  73 CALM        N/A
$$

...OBSERVATIONS IN SOUTHWEST NEBRASKA AND FAR NORTHEAST COLORADO...

CITY           SKY/WX    TMP DP  RH WIND       PRES   REMARKS
WRAY           FAIR      37  34  87 CALM      30.17S
HOLYOKE        FAIR      36  32  87 SW5       30.16F WCI  32
IMPERIAL       CLEAR     36  34  92 CALM      30.17F
OGALLALA       CLEAR     35  32  91 CALM      30.17S
NORTH PLATTE   CLEAR     36  34  92 CALM      30.18S FOG
MCCOOK         CLEAR     38  35  89 W3        30.17F
LEXINGTON      CLEAR     38  35  90 NW6       30.18S WCI  33
STAPLETON        N/A     38  35  88 CALM        N/A
GOTHENBURG       N/A     39  34  82 CALM        N/A
CALLAWAY         N/A     38  35  89 CALM        N/A
$$

...OBSERVATIONS IN CENTRAL LINCOLN COUNTY AREA...

CITY           SKY/WX    TMP DP  RH WIND       PRES   REMARKS
N.P. AIRPORT   CLEAR     36  34  92 CALM      30.18S FOG
N.P. DOWNTOWN    N/A     39  37  93 CALM        N/A
N.P. SOUTHEAST   N/A     40  37  88 CALM        N/A
N.P. HILLCREST   N/A     44  40  86 CALM        N/A
$$

...OBSERVATIONS ACROSS THE ROCKIES AND WESTERN HIGH PLAINS...

CITY           SKY/WX    TMP DP  RH WIND       PRES   REMARKS
RAPID CITY     CLEAR     39  35  86 E3        30.08F
SCOTTSBLUFF    CLEAR     39  37  92 E10       30.12F WCI  32
CHEYENNE       CLEAR     38  36  92 W5        30.12F WCI  34
DENVER         PTCLDY    41  35  79 SW9       30.10S
BERTHOUD PASS  FAIR      27  16  63 SW12G20   30.36S WCI  16
MONARCH PASS   PTCLDY    32  23  69 SW5       30.46F WCI  27
ASPEN          CLOUDY    43  29  57 S6        30.16F
STEAMBOAT      FAIR      39  30  69 CALM      30.12S
LARAMIE        PTCLDY    38  33  82 S13       30.11F WCI  30
CASPER         PTCLDY    38  34  85 N3        30.02F
$$

...OBSERVATIONS ACROSS THE NORTHERN PLAINS...

CITY           SKY/WX    TMP DP  RH WIND       PRES   REMARKS
BISMARCK       CLEAR     44  37  76 SE3       30.14S
FARGO          FAIR      44  37  76 S10       30.16S
PIERRE         CLEAR     43  37  79 SE5       30.12F
SIOUX FALLS    CLEAR     40  34  79 NE5       30.20S
$$

...OBSERVATIONS ACROSS THE CENTRAL AND SOUTHERN PLAINS...

CITY           SKY/WX    TMP DP  RH WIND       PRES   REMARKS
OMAHA          CLEAR     45  28  51 NW5       30.17S
GRAND ISLAND   CLOUDY    50  42  74 CALM      30.17F
KANSAS CITY    CLOUDY    54  30  40 NE8       30.08F
WICHITA        CLOUDY    53  46  77 NW8       30.09F
DODGE CITY     PTCLDY    41  36  82 NW8       30.16S
OKLAHOMA CITY  CLOUDY    53  48  83 NW12      30.06S
DALLAS         PTCLDY    54  48  80 N9        30.02S
AMARILLO       CLEAR     43  37  79 NE6       30.17F
$$




USA.gov is the U.S. government's official web portal to all federal, state and local government web resources and services.